Weather History for Penn Yan, NY

Change the Weather History Date:

Monday, March 11, 2013

  Actual Average (KITH) Record (KITH)
Temperature  
Mean Temperature 50 °F -  
Max Temperature 54 °F 41 °F 69 °F (1977)
Min Temperature 46 °F 21 °F -10 °F (1960)
Degree Days  
Heating Degree Days 16    
Moisture  
Dew Point 30 °F    
Average Humidity 47    
Maximum Humidity 72    
Minimum Humidity 35    
Precipitation  
Precipitation 0.00 in - - ()
Sea Level Pressure  
Sea Level Pressure 29.91 in    
Wind  
Wind Speed 14 mph (South)    
Max Wind Speed 26 mph    
Max Gust Speed 37 mph    
Visibility 10 miles    
Events      
Averages and records for this station are not official NWS values.
T = Trace of Precipitation, MM = Missing Value Source: NWS Daily Summary

Daily Weather History Graph

Daily Weather History Graph

Search for Another Location

Airport:

Trip Planner

Search our weather history database for the weather conditions in past years. The results will help you decide how hot, cold, wet, or windy it might be!

Date:

Astronomy

Mar. 11, 2013 Rise Set
Actual Time 7:26 AM EDT 7:10 PM EDT
Civil Twilight 6:58 AM EDT 7:38 PM EDT
Nautical Twilight 6:25 AM EDT 8:11 PM EDT
Astronomical Twilight 5:52 AM EDT 8:44 PM EDT
Moon 6:58 AM EDT (3/11) 7:21 PM EDT (3/11)
Length of Visible Light 12h 39m
Length of Day
11h 43m
Waning Crescent, 0% of the Moon is Illuminated
Mar 11
Waning Crescent
Mar 11
New
Mar 19
First Quarter
Mar 27
Full
Apr 3
Last Quarter

Hourly Weather History & Observations

Time (EDT) Temp. Dew Point Humidity Pressure Visibility Wind Dir Wind Speed Gust Speed Precip Events Conditions
12:53 AM 51.1 °F 24.1 °F 35% 30.02 in 10.0 mi South 12.7 mph 20.7 mph N/A   Clear
1:53 AM 50.0 °F 23.0 °F 35% 30.03 in 10.0 mi South 12.7 mph 21.9 mph N/A   Clear
2:53 AM 48.0 °F 24.1 °F 39% 30.02 in 10.0 mi South 13.8 mph 20.7 mph N/A   Scattered Clouds
3:53 AM 48.9 °F 21.9 °F 35% 29.99 in 10.0 mi South 16.1 mph 26.5 mph N/A   Partly Cloudy
4:53 AM 48.9 °F 21.9 °F 35% 29.98 in 10.0 mi South 15.0 mph 20.7 mph N/A   Partly Cloudy
5:53 AM 48.0 °F 24.1 °F 39% 29.97 in 10.0 mi South 12.7 mph 19.6 mph N/A   Mostly Cloudy
6:53 AM 46.9 °F 24.1 °F 41% 29.98 in 10.0 mi SSW 12.7 mph - N/A   Overcast
7:53 AM 46.9 °F 25.0 °F 42% 29.98 in 10.0 mi SSW 15.0 mph 25.3 mph N/A   Overcast
8:53 AM 46.9 °F 26.1 °F 44% 29.99 in 10.0 mi SSW 15.0 mph 23.0 mph N/A   Overcast
9:53 AM 46.9 °F 27.0 °F 46% 30.00 in 10.0 mi South 16.1 mph 26.5 mph 0.00 in   Overcast
10:53 AM 48.0 °F 28.0 °F 46% 29.99 in 10.0 mi South 12.7 mph 21.9 mph N/A   Mostly Cloudy
11:53 AM 48.9 °F 28.9 °F 46% 29.98 in 10.0 mi SSW 18.4 mph 27.6 mph N/A   Overcast
12:53 PM 50.0 °F 30.9 °F 48% 29.97 in 10.0 mi SSW 11.5 mph - N/A   Mostly Cloudy
1:53 PM 52.0 °F 30.9 °F 45% 29.92 in 10.0 mi SSW 6.9 mph - N/A   Scattered Clouds
2:53 PM 52.0 °F 32.0 °F 47% 29.89 in 10.0 mi South 9.2 mph - N/A   Clear
3:53 PM 53.1 °F 33.1 °F 47% 29.87 in 10.0 mi South 13.8 mph 25.3 mph N/A   Partly Cloudy
4:53 PM 53.1 °F 30.9 °F 43% 29.86 in 10.0 mi South 15.0 mph 25.3 mph N/A   Overcast
5:53 PM 52.0 °F 28.9 °F 41% 29.84 in 10.0 mi South 13.8 mph 23.0 mph N/A   Scattered Clouds
7:53 PM 51.1 °F 30.9 °F 46% 29.81 in 10.0 mi South 16.1 mph 26.5 mph N/A   Scattered Clouds
8:53 PM 51.1 °F 36.0 °F 56% 29.78 in 10.0 mi SSE 15.0 mph 27.6 mph N/A   Partly Cloudy
9:53 PM 52.0 °F 39.9 °F 63% 29.75 in 10.0 mi South 26.5 mph 36.8 mph N/A   Clear
10:53 PM 53.1 °F 43.0 °F 69% 29.74 in 10.0 mi South 15.0 mph 25.3 mph N/A   Mostly Cloudy
11:32 PM 53.6 °F 44.6 °F 72% 29.74 in 10.0 mi South 19.6 mph 32.2 mph N/A   Mostly Cloudy
11:53 PM 53.1 °F 44.1 °F 71% 29.75 in 10.0 mi South 18.4 mph 25.3 mph N/A   Overcast